SL-24 R/B, 36509

Orbit data source: Space-Track

SL-24 R/B, 36509 is space debris in LEO originally from a launch on Thu, 08 Apr 2010 UTC launched from the Tyuratam Missile And Space Complex (TTMTR). Debris objects in space refer to the collection of defunct objects orbiting the Earth. Examples of debris include non-operational satellites, rocket bodies, and fragments generated from explosions, collisions, or faulty payload assembly.

Loading next visibility...
Identifier
36509, 2010-013B
Orbit
LEO
Country
Flag of CISCIS
Related business
Manufacturer
Yuzhnoe
Mission
Spacecraft
Bus & Motor
15A18-BR, Unknown motor
Mass
~1,000 kg wet, ~1,000 kg dry
Launch date (UTC)
2010-04-08 (16 years ago)
Launch vehicle
Unknown
Launch site
Tyuratam Missile And Space Complex (TTMTR)
Object type
Payload
Rocket body
Debris
Shape & HBR
Cyl, 1.5 m
Radar Cross Section
10.603 m², Large (>1 m²)

Expand to show TLE details & history
Last TLE update: 8 hours ago

TLE from 8 hours ago
0 SL-24 R/B
1 36509U 10013B   26121.33193201  .00000089  00000-0  47680-4 0  9998
2 36509  91.9282  69.5211 0274639  22.8681 338.4453 13.93853824816919
Epoch: 2026-05-01T07:57Z
TLE epoch observation values (Epoch: 2026-05-01T07:57:58.925Z)
Latitude
0.00001°
Longitude
90.75987°
Altitude
732.607 km
Speed
7.583 km/s
True Right ascension
04h 38m 05s
True Declination
0° 00' 00"
Sunlit
Object was in daylight at epoch
Visualization orbit readout
Latitude
Unknown
Longitude
Unknown
Altitude
Unknown
Speed
Unknown
Apparent Right ascension
Unknown
Apparent Declination
Unknown
Sunlit
N/A
Visualization observer readout
Local Sidereal Time
23:55:55
Azimuth
Unknown
Elevation
Unknown
Doppler factor
Unknown
Orbital elements
Apogee altitude
1,112.369 km
Perigee altitude
711.93 km
Semi-major axis
7,290.286 km
Eccentricity
0.02746
Inclination
91.9282°
RAAN
69.5211°
Arg. of periapsis
22.8681°
True anomaly
337.25108°
Mean anomaly
338.4453°
Eccentric anomaly
337.85207°
Mean motion
3.48679 °/min
Orbital period
103.25 mins
BSTAR
0.00004768
Loading maneuver chart data...
Computing Atmospheric mass density...
Loading historical data...
Loading historical data...
Loading historical data...
Loading historical data...
Loading historical data...
Loading historical data...
Loading historical data...
Other satellites on launch #13 in the year 2010 (2010-04-08 UTC)

Documentation

Showing up to 5 results
|